CW9119 Weather Reports


Display with metric or nautical units.
time (UTC)temp
F
wind
direction
speed
MPH
gust
MPH
rain 1hr
in
rain 24hr
in
rain mn
in
humidity
%
barometer
mb
20260906220110 44 291 0.0 0.0 0.00 0.00 0.00 91 1025.6
20260906213110 44 291 0.0 0.0 0.00 0.00 0.00 90 1025.5
20260906211110 45 291 0.0 0.0 0.00 0.00 0.00 90 1025.6
20260906205110 45 291 0.0 0.0 0.00 0.01 0.00 89 1025.5
20260906204110 45 291 0.0 0.0 0.00 0.01 0.00 89 1025.4
20260906203110 46 291 0.0 0.0 0.00 0.01 0.00 89 1025.5
20260906202110 46 291 0.0 0.0 0.00 0.01 0.00 88 1025.5
20260906201110 46 291 0.0 0.0 0.00 0.01 0.00 88 1025.6
20260906195110 47 291 0.0 0.0 0.00 0.01 0.00 87 1025.8
20260906181109 52 291 0.0 0.0 0.00 0.02 0.00 77 1025.6
20260906180109 53 291 0.0 0.0 0.00 0.04 0.00 77 1025.6
20260906174109 54 291 0.0 0.0 0.00 0.04 0.00 74 1025.5
20260906173109 54 291 0.0 0.0 0.00 0.04 0.00 73 1025.4
20260906172109 55 291 0.0 0.0 0.00 0.04 0.00 72 1025.4
20260906171108 56 291 0.0 0.0 0.00 0.04 0.00 71 1025.4
20260906164108 57 291 0.0 1.0 0.00 0.04 0.00 67 1025.3
20260906163108 58 291 0.0 1.0 0.00 0.04 0.00 67 1025.5
20260906162108 58 290 0.0 8.0 0.00 0.04 0.00 66 1025.5
20260906155108 58 329 0.0 7.0 0.00 0.04 0.00 67 1025.7
20260906152108 58 306 0.0 5.0 0.00 0.04 0.00 65 1025.5
20260906151113 58 301 1.0 7.0 0.00 0.04 0.00 63 1025.4
20260906145113 59 308 1.0 8.0 0.00 0.04 0.00 62 1025.6
20260906144112 59 360 2.0 12.0 0.00 0.04 0.00 64 1025.6
20260906143112 60 320 2.0 7.0 0.00 0.04 0.00 62 1025.4
20260906142112 61 325 2.0 7.0 0.00 0.04 0.00 60 1025.7
20260906140112 61 291 0.0 13.0 0.00 0.04 0.00 60 1025.7
20260906135112 62 23 1.0 7.0 0.00 0.04 0.00 60 1025.8
20260906134112 62 45 0.0 7.0 0.00 0.04 0.00 63 1025.8
20260906130112 62 302 3.0 10.0 0.00 0.04 0.00 59 1025.6
20260906124112 60 9 0.0 5.0 0.00 0.04 0.00 63 1025.8
20260906123112 61 24 2.0 12.0 0.00 0.04 0.00 62 1025.8
20260906121112 61 323 1.0 8.0 0.00 0.04 0.00 61 1025.4
20260906115111 61 18 1.0 8.0 0.00 0.04 0.00 63 1025.5
20260906112111 60 343 0.0 6.0 0.00 0.04 0.00 66 1025.7
20260906110111 60 24 1.0 8.0 0.00 0.04 0.00 66 1025.7
20260906102111 59 162 0.0 7.0 0.00 0.04 0.00 69 1025.6
20260906094110 57 278 1.0 16.0 0.00 0.04 0.00 71 1025.3
20260906092110 57 290 3.0 10.0 0.00 0.04 0.00 70 1025.3
20260906085110 56 134 0.0 8.0 0.00 0.04 0.00 77 1025.2
20260906084110 56 283 2.0 14.0 0.00 0.04 0.00 75 1025.1
20260906081110 55 5 3.0 10.0 0.00 0.04 0.00 78 1024.8
20260906063110 51 297 3.0 11.0 0.00 0.04 0.00 87 1023.8
20260906062110 51 5 0.0 10.0 0.00 0.04 0.00 88 1023.8
20260906055109 50 316 3.0 8.0 0.00 0.04 0.00 89 1023.5
20260906054109 50 327 1.0 11.0 0.00 0.04 0.00 89 1023.5
20260906053109 50 305 1.0 8.0 0.00 0.04 0.00 89 1023.5
20260906045109 49 355 0.0 6.0 0.00 0.04 0.00 88 1022.8
20260906041108 50 318 1.0 5.0 0.00 0.04 0.00 88 1022.6
20260906040108 51 349 2.0 8.0 0.00 0.04 0.00 88 1022.7
20260906035108 51 284 2.0 10.0 0.00 0.04 0.00 88 1022.6
20260906032108 51 47 2.0 7.0 0.00 0.04 0.00 88 1022.4
20260906031108 51 301 0.0 10.0 0.00 0.04 0.00 88 1022.3
20260906030108 51 301 1.0 10.0 0.00 0.04 0.00 88 1022.3
20260906024108 51 324 1.0 7.0 0.00 0.04 0.00 88 1022.2
20260906023108 51 310 2.0 8.0 0.00 0.04 0.00 88 1022.3
20260906022108 51 355 3.0 11.0 0.00 0.04 0.00 88 1022.1
20260906020107 51 323 0.0 7.0 0.00 0.04 0.00 88 1022.3
20260906015108 51 331 2.0 7.0 0.00 0.06 0.00 88 1022.2
20260906012112 52 284 0.0 0.0 0.00 0.06 0.00 87 1022.0
20260906011112 52 250 1.0 5.0 0.00 0.06 0.00 87 1022.1
20260906010112 52 270 2.0 14.0 0.00 0.06 0.00 87 1021.9
20260906005112 52 304 2.0 8.0 0.00 0.08 0.00 88 1022.0
20260906003112 52 278 3.0 13.0 0.00 0.08 0.00 88 1021.9
20260906000112 52 332 0.0 5.0 0.00 0.08 0.00 88 1022.0
20260905235112 52 329 0.0 1.0 0.00 0.10 0.00 87 1021.7
20260905231111 52 318 1.0 8.0 0.00 0.10 0.00 87 1021.4
20260905230111 52 30 3.0 8.0 0.00 0.10 0.00 87 1021.4
20260905224111 52 19 1.0 6.0 0.00 0.13 0.00 88 1021.3
20260905222111 52 360 1.0 8.0 0.01 0.13 0.00 89 1021.1